Location: La Sioule Rivi�re
(46.3664°N, 3.3197°E)
Time: 12:19:48
(UTC+00:00)

NOSS 3-4 (C) - Pass Details

Date: 29 October 2020
Orbit: 886 x 1326 km, 63.4° (Epoch: 06 November)

Event Time Altitude Azimuth Distance (km) Brightness Sun altitude
Rises 17:52:28 0° 320° (NW) 3,752 7.1 -13.7°
Reaches altitude 10° 17:55:11 10° 328° (NNW) 2,860 6.3 -14.2°
Maximum altitude 18:01:32 40° 37° (NE) 1,614 4.3 -15.3°
Enters shadow 18:05:43 22° 92° (E) 2,310 4.8 -16.0°
